Location: Blairvadach
(56.2780°N, 6.9720°W)
Time: 03:40:26
(UTC+00:00)

Envisat - Pass Details

Date: 21 November 2019
Orbit: 764 x 766 km, 98.1° (Epoch: 14 December)

Event Time Altitude Azimuth Distance (km) Brightness Sun altitude
Rises 06:21:56 0° 21° (NNE) 3,247 6.4 -15.3°
Reaches altitude 10° 06:24:41 10° 35° (NE) 2,315 5.8 -14.9°
Maximum altitude 06:28:49 25° 90° (E) 1,532 5.5 -14.4°
Drops below altitude 10° 06:32:56 10° 144° (SE) 2,301 6.2 -13.8°
Sets 06:35:38 0° 158° (SSE) 3,222 6.8 -13.4°
